Weather in Korovyntsi

Ukraine / Sumi District     50°48′32″N   33°45′01″E
temp.,
°C
wind,
m/s
gust,
m/s
humid.,
%
clouds,
%
prec.,
mm/h
press.,
hPa
HPBL,
m
27 october, wed
wed2700:00+2ssw412645 0.0 1028226
03:00+2ssw411685 0.0 1027211
06:00+1ssw513744 0.0 1026260
09:00+3ssw513730 0.0 1025361
12:00+8sw7106819 0.0 1024724
15:00+10wsw686116 0.0 1023992
18:00+8wsw3671100 0.0 1023137
21:00+6w337416 0.0 102339
28 october, thu
thu2800:00+5w338289 0.0 102440
03:00+4wsw3588100 0.0 102383
06:00+4wsw3893100 0.0 1023167
09:00+7sw51281100 0.2 1022338
12:00+10w61073100 0.0 1021532
15:00+10wnw51179100 0.0 1020591
18:00+10wnw4983100 0.1 1021383
21:00+8nw4994100 0.1 1023296
29 october, fri
fri2900:00+7nw36955 0.0 1024110
03:00+6n35965 0.0 1025106
06:00+4nne33935 0.0 102751
09:00+5ne25835 0.0 1028139
12:00+10ene33590 0.0 1029557
15:00+12e23540 0.0 1029870
18:00+8e22720 0.0 102913
21:00+6ese33820 0.0 103036
30 october, sat
sat3000:00+5se35900 0.0 103176
03:00+4se34920 0.0 103263
06:00+4se34922 0.0 103261
09:00+5sse36882 0.0 1033153
12:00+11sse45640 0.0 1032527
15:00+13s45540 0.0 1031821
18:00+8sse33710 0.0 103132
21:00+7sse34740 0.0 103247
31 october, sun
sun3100:00+6sse34760 0.0 103254
03:00+5sse33790 0.0 103236
05:00+4se33810 0.0 103141
08:00+5se36800 0.0 1031150
11:00+11sse57600 0.0 1030549
14:00+13se45520 0.0 1027796
17:00+8ese46650 0.0 102785
20:00+6ese49720 0.0 1027146